[[{"header":{"parameterUnit":"m.s-1","parameterCategory":1,"la1":30.2991,"la2":30.254,"lo1":-89.0895,"lo2":-89.0444,"dy":0.0017,"dx":0.0017,"nx":28,"ny":28,"refTime":"2025-05-27T03:00:00:Z","depth":0,"parameterNumber":2,"parameterNumberName":"U-component_of_WINDS"},"data":[0,0,0,0,0,0,0,0,0,0,0,0,0,0,0,0,0,0,0,0,0,0,0,0,0,0,0,0,0,0,0,0,0,0,0,0,0,0,0,0,0,0,0,0,0,0,0,0,0,0,0,0,0,0,0,0,0,0,-0.7769,-0.7769,0,-0.7711,-0.7711,-0.771,-0.7655,-0.7654,-0.7653,-0.7652,-0.7594,-0.7593,-0.7592,0,0,0,0,0,0,0,0,0,0,0,0,0,-0.7833,-0.7832,-0.777,-0.7769,-0.7768,-0.7711,-0.7711,-0.771,-0.7655,-0.7654,-0.7653,-0.7652,-0.7594,-0.7593,-0.7592,0,0,0,0,0,0,0,0,0,0,0,0,0,-0.7793,-0.7832,-0.777,-0.7734,-0.773,-0.7712,-0.7711,-0.771,-0.7655,-0.7654,-0.7653,-0.7652,-0.7595,-0.7593,-0.7592,-0.7605,0,0,-0.7588,-0.7587,0,0,0,0,0,0,0,0,-0.7796,-0.7791,-0.774,-0.7736,-0.7732,-0.7689,-0.7711,-0.7675,-0.7655,-0.7683,-0.7652,-0.7651,-0.7627,-0.7623,-0.7614,-0.7602,-0.76,-0.7588,-0.7587,-0.7587,-0.7586,0,0,0,0,0,0,0,-0.7798,-0.7793,-0.7746,-0.7739,-0.7734,-0.772,-0.7714,-0.7704,-0.7662,-0.7681,-0.7677,-0.767,-0.7624,-0.7616,-0.7612,-0.7599,-0.7588,-0.7587,-0.7586,-0.7585,-0.7593,-0.7594,0,0,0,0,0,0,-0.7807,-0.7796,-0.7748,-0.7745,-0.7762,-0.772,-0.7713,-0.7704,-0.7662,-0.7654,-0.7671,-0.7668,-0.7618,-0.7614,-0.761,-0.7621,-0.7587,-0.7585,-0.7585,-0.7592,-0.7593,-0.7594,0,0,0,0,0,0,-0.7808,-0.7803,-0.7751,-0.7769,-0.7761,-0.772,-0.7711,-0.7703,-0.7694,-0.7654,-0.7647,-0.767,-0.7617,-0.7612,-0.7606,-0.7618,-0.7585,-0.7583,-0.7591,-0.7592,-0.7593,-0.7644,0,0,0,0,0,0,-0.781,-0.7804,-0.7808,-0.777,-0.7761,-0.7748,-0.7712,-0.7703,-0.7692,-0.7687,-0.7651,-0.7644,-0.7616,-0.7608,-0.7605,-0.7616,-0.7582,-0.7589,-0.7591,-0.7593,-0.7641,-0.7647,-0.7652,0,0,0,0,0,-0.7813,-0.7826,-0.7809,-0.7804,-0.7766,-0.7749,-0.7744,-0.771,-0.7693,-0.7697,-0.7671,-0.7646,-0.7618,-0.7608,-0.7604,-0.7614,-0.7588,-0.7591,-0.7593,-0.7638,-0.7646,-0.7652,0,0,0,0,0,0,-0.7868,-0.782,-0.7801,-0.7802,-0.778,-0.774,-0.7744,-0.772,-0.7702,-0.7699,-0.7658,-0.7651,-0.7649,-0.7631,-0.7622,-0.7624,-0.7599,-0.7601,-0.7635,-0.7642,-0.7647,-0.7652,-0.7581,0,0,0,0,0,-0.788,-0.787,-0.7829,-0.7834,-0.7824,-0.7786,-0.7777,-0.7753,-0.7729,-0.772,-0.7693,-0.7671,-0.7657,-0.7648,-0.7633,-0.7638,-0.7629,-0.7643,-0.7649,-0.7653,-0.7655,-0.7654,-0.766,-0.7601,-0.7601,-0.7601,0,0,-0.7906,-0.7878,-0.7875,-0.7844,-0.7824,-0.7815,-0.7778,-0.777,-0.7763,-0.7719,-0.7711,-0.7691,-0.7663,-0.7662,-0.766,-0.7647,-0.7669,-0.7656,-0.766,-0.7659,-0.7657,-0.7663,-0.7668,-0.7603,-0.7603,-0.7602,0,0,-0.7947,-0.7925,-0.7926,-0.7906,-0.7876,-0.785,-0.7851,-0.7814,-0.7798,-0.779,-0.7756,-0.7746,-0.7723,-0.7704,-0.7692,-0.7724,-0.7699,-0.772,-0.7749,-0.7749,-0.7753,-0.7757,-0.7767,-0.7771,-0.7722,-0.7722,-0.7722,0,-0.7982,-0.7966,-0.793,-0.7923,-0.791,-0.7868,-0.7868,-0.7851,-0.7818,-0.781,-0.7796,-0.7764,-0.7743,-0.7736,-0.7744,-0.7735,-0.7734,-0.7724,-0.7755,-0.7759,-0.7762,-0.7771,-0.7775,-0.7725,-0.7724,-0.7724,-0.7724,0,-0.8011,-0.8,-0.8004,-0.7972,-0.7959,-0.7956,-0.7919,-0.7911,-0.7887,-0.7863,-0.7854,-0.7827,-0.7805,-0.7801,-0.7779,-0.7791,-0.7783,-0.7763,-0.7737,-0.7771,-0.7779,-0.7782,-0.7728,-0.7727,-0.7727,-0.7726,0,0,-0.8086,-0.8032,-0.8034,-0.8018,-0.7981,-0.7972,-0.7966,-0.7944,-0.7937,-0.7915,-0.7909,-0.7889,-0.7869,-0.7855,-0.783,-0.783,-0.7855,-0.7809,-0.7808,-0.7818,-0.7865,-0.788,-0.7885,-0.7838,-0.7839,-0.7839,-0.7867,0,-0.8121,-0.8107,-0.8073,-0.8071,-0.8059,-0.8019,-0.8014,-0.799,-0.7967,-0.7954,-0.7929,-0.7915,-0.7891,-0.7881,-0.788,-0.7853,-0.7864,-0.785,-0.7832,-0.7832,-0.7839,-0.7889,-0.7905,-0.7933,-0.787,-0.787,-0.787,0,-0.8159,-0.8138,-0.8134,-0.8095,-0.8089,-0.8085,-0.8061,-0.8049,-0.8021,-0.8004,-0.7988,-0.7959,-0.7951,-0.7927,-0.7914,-0.7905,-0.7896,-0.7881,-0.7881,-0.7878,-0.7853,-0.7886,-0.794,-0.7944,-0.7875,-0.7875,-0.7875,0,-0.8213,-0.8184,-0.8177,-0.8165,-0.812,-0.8118,-0.8099,-0.807,-0.8058,-0.8037,-0.8028,-0.8007,-0.7995,-0.7978,-0.7945,-0.7931,-0.7935,-0.7909,-0.792,-0.7921,-0.7923,-0.7923,-0.7975,-0.7918,-0.7918,-0.7918,-0.7918,0,-0.8255,-0.8254,-0.8201,-0.8197,-0.8193,-0.8154,-0.8152,-0.813,-0.8104,-0.8094,-0.8058,-0.805,-0.8007,-0.7993,-0.7967,-0.7959,-0.7955,-0.794,-0.7933,-0.7943,-0.7945,-0.7936,-0.7933,-0.7919,-0.7919,-0.7918,-0.7918,0,-0.8315,-0.8279,-0.8269,-0.8226,-0.8216,-0.8215,-0.8179,-0.8173,-0.8147,-0.8135,-0.813,-0.809,-0.8072,-0.8037,-0.801,-0.7992,-0.799,-0.7978,-0.7999,-0.7995,-0.8007,-0.8006,-0.8055,-0.8059,-0.8,-0.8001,-0.8001,0,-0.8343,-0.8341,-0.8298,-0.8288,-0.827,-0.8256,-0.8243,-0.8203,-0.8191,-0.8158,-0.8156,-0.8135,-0.8116,-0.809,-0.8058,-0.8036,-0.8023,-0.8042,-0.802,-0.8029,-0.8022,-0.8022,-0.8021,-0.8047,-0.8048,-0.8048,-0.8049,0,-0.8398,-0.8379,-0.8362,-0.8337,-0.8322,-0.8301,-0.8279,-0.8273,-0.8228,-0.8217,-0.8197,-0.8183,-0.8154,-0.8133,-0.8107,-0.8087,-0.806,-0.8056,-0.8057,-0.8067,-0.8079,-0.8071,-0.8012,-0.8055,-0.8054,-0.8054,-0.8054,-0.8053,-0.8442,-0.8437,-0.8405,-0.8386,-0.8364,-0.8344,-0.8335,-0.8307,-0.829,-0.8263,-0.8241,-0.8223,-0.8194,-0.8155,-0.8137,-0.8122,-0.811,-0.8112,-0.8112,-0.8113,-0.8117,-0.8081,-0.8118,-0.8117,-0.8117,-0.8117,-0.8117,0,-0.8493,-0.847,-0.8453,-0.8421,-0.8406,-0.8381,-0.8354,-0.8343,-0.8327,-0.8301,-0.8283,-0.826,-0.8239,-0.8205,-0.8181,-0.8176,-0.8163,-0.8171,-0.8171,-0.8167,-0.813,-0.8131,-0.8182,-0.8182,-0.8182,-0.8182,-0.8182,-0.8182,-0.8518,-0.8508,-0.8486,-0.8465,-0.8442,-0.8423,-0.841,-0.839,-0.8369,-0.8344,-0.8327,-0.8304,-0.8274,-0.8248,-0.8228,-0.8218,-0.8211,-0.8222,-0.8209,-0.8175,-0.8169,-0.8164,-0.8164,-0.8221,-0.8221,-0.8246,-0.8247,-0.8247]},{"header":{"parameterUnit":"m.s-1","parameterCategory":1,"la1":30.2991,"la2":30.254,"lo1":-89.0895,"lo2":-89.0444,"dy":0.0017,"dx":0.0017,"nx":28,"ny":28,"refTime":"2025-05-27T03:00:00:Z","depth":0,"parameterNumber":3,"parameterNumberName":"V-component_of_WINDS"},"data":[0,0,0,0,0,0,0,0,0,0,0,0,0,0,0,0,0,0,0,0,0,0,0,0,0,0,0,0,0,0,0,0,0,0,0,0,0,0,0,0,0,0,0,0,0,0,0,0,0,0,0,0,0,0,0,0,0,0,3.1564,3.1565,0,3.1661,3.1662,3.1663,3.1666,3.1665,3.1664,3.1663,3.1755,3.1759,3.1762,0,0,0,0,0,0,0,0,0,0,0,0,0,3.1376,3.1379,3.1564,3.1565,3.1567,3.1661,3.1662,3.1664,3.1666,3.1665,3.1663,3.1662,3.1754,3.1758,3.1763,0,0,0,0,0,0,0,0,0,0,0,0,0,3.1463,3.138,3.1564,3.158,3.1582,3.1661,3.1662,3.1664,3.1666,3.1665,3.1663,3.1661,3.1753,3.1758,3.1763,3.1831,0,0,3.1779,3.1782,0,0,0,0,0,0,0,0,3.1458,3.147,3.1576,3.1579,3.1581,3.165,3.163,3.172,3.1667,3.1634,3.1662,3.166,3.1721,3.1729,3.1751,3.1835,3.1839,3.178,3.1783,3.1785,3.1787,0,0,0,0,0,0,0,3.1452,3.1466,3.1602,3.1577,3.1581,3.158,3.159,3.1647,3.1686,3.1637,3.1637,3.1649,3.1722,3.1746,3.1753,3.1841,3.178,3.1785,3.1788,3.179,3.1987,3.1989,0,0,0,0,0,0,3.1444,3.1461,3.1599,3.1605,3.1515,3.1585,3.1596,3.1629,3.1686,3.1693,3.165,3.1649,3.1737,3.1747,3.1756,3.1841,3.1785,3.179,3.1794,3.1985,3.1988,3.199,0,0,0,0,0,0,3.144,3.1456,3.1595,3.1533,3.1551,3.159,3.1627,3.1632,3.1656,3.1696,3.1702,3.1668,3.1736,3.1749,3.1813,3.1844,3.1793,3.1798,3.1983,3.1986,3.1989,3.2011,0,0,0,0,0,0,3.1435,3.1455,3.1483,3.1534,3.1554,3.1653,3.1629,3.1635,3.1666,3.1665,3.1714,3.172,3.1736,3.1805,3.1819,3.1851,3.1802,3.198,3.1984,3.1988,3.2007,3.2014,3.202,0,0,0,0,0,3.1428,3.1483,3.1484,3.1501,3.159,3.1654,3.1666,3.1685,3.1668,3.1696,3.1721,3.1719,3.1838,3.1812,3.1827,3.1861,3.1978,3.1983,3.1988,3.2005,3.2013,3.202,0,0,0,0,0,0,3.1432,3.149,3.1492,3.1566,3.1606,3.1655,3.169,3.1693,3.1736,3.1733,3.1753,3.1764,3.1828,3.1851,3.182,3.193,3.1906,3.1914,3.1914,3.1922,3.1928,3.1922,3.1806,0,0,0,0,0,3.1441,3.1491,3.1538,3.1599,3.1619,3.1651,3.168,3.1691,3.1732,3.1748,3.1779,3.1817,3.1864,3.1894,3.1938,3.201,3.2021,3.2041,3.2047,3.2052,3.2059,3.21,3.2109,3.2005,3.2005,3.2005,0,0,3.1461,3.1499,3.1529,3.1601,3.1633,3.1682,3.1665,3.1718,3.1754,3.1756,3.182,3.1843,3.1887,3.1956,3.1988,3.1977,3.209,3.2058,3.2061,3.2066,3.2105,3.2115,3.2124,3.2008,3.2008,3.2007,0,0,3.1524,3.1557,3.1613,3.1646,3.1696,3.1717,3.173,3.1779,3.1796,3.1861,3.1864,3.1906,3.1985,3.2017,3.2044,3.2119,3.2118,3.2132,3.2166,3.2205,3.2213,3.2221,3.2249,3.2259,3.2139,3.2139,3.2139,0,3.1542,3.1619,3.164,3.1694,3.1725,3.1731,3.1786,3.1816,3.1877,3.1898,3.1885,3.1986,3.2016,3.2093,3.2112,3.2132,3.2148,3.2128,3.2211,3.2218,3.2226,3.2253,3.2263,3.214,3.214,3.214,3.214,0,3.164,3.1693,3.1731,3.1793,3.1828,3.1882,3.191,3.1943,3.1951,3.1973,3.2039,3.2075,3.2128,3.2146,3.2153,3.2225,3.2217,3.2207,3.2183,3.2237,3.2263,3.2273,3.2143,3.2142,3.2142,3.2141,0,0,3.1708,3.1782,3.1796,3.1825,3.188,3.1921,3.1974,3.2029,3.2057,3.2098,3.2144,3.2211,3.2203,3.2233,3.2244,3.2278,3.2338,3.2264,3.2266,3.2278,3.242,3.2428,3.244,3.2337,3.2339,3.234,3.2417,0,3.1778,3.1878,3.1898,3.1983,3.2033,3.2038,3.2085,3.2124,3.2145,3.2189,3.2212,3.226,3.2245,3.2264,3.2298,3.2323,3.2367,3.2318,3.2379,3.2381,3.237,3.2453,3.2462,3.2533,3.2427,3.2428,3.243,0,3.1874,3.1921,3.2012,3.2062,3.2084,3.2126,3.2178,3.222,3.2263,3.2276,3.231,3.2317,3.2372,3.2345,3.2421,3.2388,3.2413,3.243,3.2433,3.2441,3.241,3.2465,3.2555,3.2567,3.2446,3.2444,3.2443,0,3.1917,3.2002,3.2068,3.2092,3.2152,3.2182,3.2208,3.225,3.2281,3.2325,3.2346,3.2395,3.2422,3.2459,3.2479,3.2457,3.2554,3.2528,3.2567,3.2566,3.2588,3.2587,3.2686,3.2602,3.2601,3.2601,3.2601,0,3.1994,3.205,3.2089,3.213,3.2192,3.2214,3.2274,3.23,3.2337,3.2381,3.2388,3.2429,3.2452,3.2496,3.2511,3.2573,3.2584,3.2596,3.26,3.2597,3.2596,3.2615,3.2612,3.2604,3.2603,3.2603,3.2602,0,3.2054,3.2082,3.2155,3.2207,3.2221,3.2265,3.2308,3.2347,3.2368,3.2425,3.2439,3.2473,3.2525,3.2549,3.2612,3.2622,3.2693,3.2692,3.268,3.2682,3.2719,3.2716,3.2836,3.2853,3.2756,3.2757,3.2758,0,3.2103,3.2146,3.2203,3.2235,3.2262,3.2313,3.2346,3.2368,3.2402,3.2455,3.2488,3.2541,3.2585,3.2668,3.2697,3.2746,3.2748,3.2786,3.2755,3.2751,3.275,3.2749,3.2753,3.2792,3.2793,3.2794,3.2795,0,3.2186,3.2199,3.2248,3.2302,3.2342,3.2385,3.2426,3.2451,3.248,3.2517,3.2573,3.2607,3.2673,3.2726,3.2777,3.2802,3.2803,3.2804,3.2816,3.2814,3.2806,3.2813,3.2697,3.2802,3.2801,3.2801,3.28,3.28,3.2243,3.2283,3.233,3.2384,3.2419,3.2458,3.2498,3.2526,3.2573,3.2631,3.264,3.2699,3.2741,3.281,3.2837,3.2882,3.2872,3.2889,3.2894,3.2898,3.2901,3.2798,3.2891,3.2891,3.2891,3.289,3.289,0,3.2329,3.236,3.241,3.247,3.2512,3.2512,3.2558,3.2593,3.2646,3.2686,3.273,3.2793,3.2845,3.2878,3.293,3.296,3.2962,3.2973,3.2972,3.2978,3.2906,3.2892,3.297,3.297,3.297,3.297,3.297,3.297,3.2379,3.2447,3.2465,3.2549,3.2579,3.2639,3.2666,3.2702,3.2734,3.2806,3.285,3.2872,3.2909,3.2963,3.301,3.3018,3.3038,3.305,3.3058,3.2991,3.2982,3.2974,3.2961,3.3053,3.3053,3.3126,3.3126,3.3127]}]]